[Iaude] MPEC B48: 2024 BY [a=1.34,e=0.28,i=1.3,H=26.4]
    mpec at marsden.cfa.harvard.edu 
    mpec at marsden.cfa.harvard.edu
       
    Fri Jan 19 15:59:29 EST 2024
    
    
  
M.P.E.C. 2024-B48                              Issued 2024 January 19, 20:57 UT
     The Minor Planet Electronic Circulars contain information on unusual
         minor planets, routine data on comets and natural satellites,
         and occasional editorial announcements.  They are published
    on behalf of Division F of the International Astronomical Union by the
          Minor Planet Center, Smithsonian Astrophysical Observatory,
                          Cambridge, MA 02138, U.S.A.
			  
             Prepared using the Tamkin Foundation Computer Network
                              MPC at CFA.HARVARD.EDU
            URL https://www.minorplanetcenter.net/    ISSN 1523-6714
                                    2024 BY                                     
Observations:
     K24B00Y  C2024 01 05.35490207 03 43.867+24 34 43.49         21.59GVEB048F52
     K24B00Y  C2024 01 05.36789507 03 44.134+24 34 59.01         21.98GVEB048F52
     K24B00Y  C2024 01 05.38084407 03 44.347+24 35 14.52         21.43GVEB048F52
     K24B00Y  C2024 01 05.39374207 03 44.586+24 35 29.17         21.91GVEB048F52
     K24B00Y*1C2024 01 19.18990407 33 15.599+32 26 31.52         20.15GVEB048G96
     K24B00Y 1C2024 01 19.19550207 33 16.841+32 26 54.20         20.44GVEB048G96
     K24B00Y 1C2024 01 19.20110907 33 18.047+32 27 16.99         20.20GVEB048G96
     K24B00Y 1C2024 01 19.20671407 33 19.289+32 27 39.24         20.17GVEB048G96
     K24B00Y  C2024 01 19.26632207 33 32.101+32 31 34.57         20.05GVEB048V00
     K24B00Y  C2024 01 19.27244107 33 33.372+32 31 57.94         20.28GVEB048V00
     K24B00Y  C2024 01 19.27855607 33 34.632+32 32 21.37         20.27GVEB048V00
     K24B00Y  C2024 01 19.28624507 33 36.234+32 32 50.64         20.27GVEB048V00
     K24B00Y KC2024 01 19.30727907 33 40.432+32 34 08.00         20.17GVEB048I52
     K24B00Y KC2024 01 19.30836107 33 40.666+32 34 12.22         20.15GVEB048I52
     K24B00Y KC2024 01 19.30942907 33 40.885+32 34 16.18         20.04GVEB048I52
     K24B00Y KC2024 01 19.31049407 33 41.094+32 34 20.03         19.97GVEB048I52
     K24B00Y KB2024 01 19.80717007 36 21.86 +33 04 56.7          19.7 GXEB048I93
     K24B00Y KB2024 01 19.81405907 36 23.80 +33 05 26.7          20.5 GXEB048I93
     K24B00Y KB2024 01 19.82093507 36 25.77 +33 05 57.2          20.2 GXEB048I93
Observer details:
F52 Pan-STARRS 2, Haleakala.  Observers J. Herman, T. Lowe, P. Minguez, A.
    Schultz, I. Smith.  Measurers K. Chambers, T. de Boer, J. Fairlamb, H.
    Gao, M. Huber, C.-C. Lin, E. Magnier, Y. Ramanjooloo, R. Wainscoat, R.
    Weryk.  1.8-m Ritchey-Chretien + CCD.
G96 Mt. Lemmon Survey.  Observer A. R. Gibbs.  Measurers T. Beuden, V. F.
    Carvajal, D. Fay, J. B. Fazekas, D. C. Fuls, A. R. Gibbs, A. D. Grauer, H.
    Groeller, J. K. Hogan, R. A. Kowalski, S. M. Larson, G. J. Leonard, D.
    Rankin, R. L. Seaman, F. C. Shelly, K. W. Wierzchos.  1.5-m reflector +
    10K CCD.
I52 Steward Observatory, Mt. Lemmon Station.  Observer R. A. Kowalski.
    Measurers E. C. Beshore, D. Fay, J. B. Fazekas, D. C. Fuls, A. R. Gibbs,
    A. D. Grauer, H. Groeller, J. K. Hogan, R. A. Kowalski, S. M. Larson, G.
    J. Leonard, D. Rankin, R. L. Seaman, F. C. Shelly, K. W. Wierzchos.  1.0-m
    prime focus + CCD.
I93 St Pardon de Conques.  Observer F. Losse.  0.40-m f/3.7 reflector + CMO.
V00 Kitt Peak-Bok.  Observer R. A. Mastaler.  Measurers M. J. Brucker, C. E.
    Woodward, D. Fay, J. B. Fazekas, D. C. Fuls, A. R. Gibbs, H. Groeller, J.
    K. Hogan, R. A. Kowalski, S. M. Larson, C. Lejoly, G. J. Leonard, R. A.
    Mastaler, R. S. McMillan, D. Rankin, R. L. Seaman, A. Serrano, F. C.
    Shelly, K. W. Wierzchos.  2.25-m reflector + 4x4K mosaic CCD.
Orbital elements:
2024 BY                                                  Earth MOID = 0.0142 AU
Epoch 2023 Sept. 13.0 TT = JDT 2460200.5                Veres                   
M 253.90566              (2000.0)            P               Q                  
n   0.63225574     Peri.   65.51295     -0.95391576     -0.29918394             
a   1.3444383      Node    97.07176     +0.26619910     -0.87925053             
e   0.2833336      Incl.    1.33390     +0.13850186     -0.37068515             
P   1.56           H   26.41          G   0.15           U   7                  
Residuals in seconds of arc
240105 F52  0.1-  0.1-    240119 G96  0.1+  0.0     240119 I52  0.1+  0.2+
240105 F52  0.1+  0.0     240119 V00  0.1+  0.0     240119 I52  0.1-  0.1+
240105 F52  0.2-  0.2+    240119 V00  0.0   0.1-    240119 I93  0.2-  0.2+
240105 F52  0.1+  0.1-    240119 V00  0.1-  0.0     240119 I93  0.4-  0.2-
240119 G96  0.0   0.2-    240119 V00  0.0   0.0     240119 I93  0.0   0.0
240119 G96  0.1+  0.1-    240119 I52  0.0   0.0
240119 G96  0.2-  0.2+    240119 I52  0.1+  0.2+
Ephemeris:
2024 BY                  a,e,i = 1.34, 0.28, 1                   q = 0.9635
Date    TT    R. A. (2000) Decl.     Delta      r    Elong.  Phase     V
2023 12 20    06 53 13.1 +21 40 11   0.1627  1.1419   165.1    12.8    23.5
...
2024 01 04    07 02 29.4 +24 11 23   0.09852 1.0818   177.9     1.9    21.8
...
2024 01 12    07 12 06.6 +27 11 55   0.06971 1.0527   173.2     6.4    21.2
...
2024 01 18    07 28 00.5 +31 17 47   0.05020 1.0329   167.7    11.7    20.7
2024 01 19    07 32 14.7 +32 15 09   0.04711 1.0298   166.7    12.7    20.6
2024 01 20    07 37 12.8 +33 19 11   0.04408 1.0267   165.6    13.7    20.5
...
2024 01 26    08 38 37.3 +43 09 32   0.02739 1.0095   155.7    23.6    19.7
...
2024 02 03    14 39 46.5 +41 30 00   0.01724 0.9902   105.3    73.7    20.1
...
2024 02 18    17 43 06.5 -03 09 53   0.05167 0.9672    64.8   112.5    24.2
M. P. C. Staff               (C) Copyright 2024 MPC           M.P.E.C. 2024-B48
    
    
More information about the Iaude
mailing list